AirNav   Bose Proflight aviation headeet
 
 356 users online  

KCGS College Park Airport
College Park, Maryland, USA

GOING TO COLLEGE PARK?


FAA INFORMATION EFFECTIVE 03 JANUARY 2019

Location

FAA Identifier: CGS
Lat/Long: 38-58-50.1000N / 076-55-20.3000W
38-58.835000N / 076-55.338333W
38.9805833 / -76.9223056
(estimated)
Elevation: 48.4 ft. / 14.8 m (surveyed)
Variation: 11W (2000)
From city: 1 mile E of COLLEGE PARK, MD
Time zone: UTC -5 (UTC -4 during Daylight Saving Time)
Zip code: 20740

Airport Operations

Airport use: Open to the public
Activation date: 04/1940
Control tower: no
ARTCC: WASHINGTON CENTER
FSS: LEESBURG FLIGHT SERVICE STATION
NOTAMs facility: CGS (NOTAM-D service available)
Attendance: 0700-2200,
Pattern altitude: 1048.4 ft. MSL
Wind indicator: lighted
Segmented circle: yes
Lights: ACTVT MIRL RY 15/33; APAP RY 15 - CTAF 5 CLICKS.
Beacon: white-green (lighted land airport)
Operates sunset to sunrise.

Airport Communications

CTAF/UNICOM: 122.975
WX AWOS-3: 121.225 (301-864-5497)
POTOMAC APPROACH: 125.65(DC FRZ) 124.7
POTOMAC DEPARTURE: 125.65(DC FRZ) 124.7
IRONS STAR: 126.4
WX ASOS at DCA (9 nm SW): 132.65 (703-412-8140)
WX AWOS-3 at FME (10 nm NE): 123.925
WX AWOS-3PT at GAI (16 nm NW): 128.275 (301-977-2971)
WX ASOS at BWI (17 nm NE): PHONE 410-691-1278

Nearby radio navigation aids

VOR radial/distance  VOR name  Freq  Var
DCAr045/9.0WASHINGTON VOR/DME111.0009W
ADWr356/10.7ANDREWS VORTAC113.1010W
BALr238/16.7BALTIMORE VORTAC115.1011W
OTTr343/18.5NOTTINGHAM VORTAC113.7010W
AMLr092/25.5ARMEL VOR/DME113.5008W
EMIr183/31.0WESTMINSTER VORTAC117.9008W
FDKr149/(33.4)FREDERICK VOR109.0008W

 
NDB name  Hdg/Dist  Freq  Var  ID
GEORGETOWN081/9.932309WGTN --. - -.
OXONN032/13.833211WDCA -.. -.-. .-
ELLICOTT211/19.637111WFND ..-. -. -..
DAVEE034/21.122309WDAA -.. .- .-

Airport Services

Fuel available: 100LL JET-A
Parking: tiedowns
Airframe service: NONE
Powerplant service: NONE
Bottled oxygen: NONE
Bulk oxygen: NONE

Runway Information

Runway 15/33

Dimensions: 2607 x 60 ft. / 795 x 18 m
Surface: asphalt, in fair condition
Runway edge lights: medium intensity
RUNWAY 15  RUNWAY 33
Latitude: 38-58.995650N38-58.674748N
Longitude: 076-55.520488W076-55.154692W
Elevation: 48.4 ft.39.1 ft.
Gradient: 0.4% DOWN0.4% UP
Traffic pattern: leftleft
Runway heading: 149 magnetic, 138 true329 magnetic, 318 true
Displaced threshold: 416 ft.201 ft.
Markings: nonprecision, in good conditionnonprecision, in good condition
Runway end identifier lights: nono
Touchdown point: yes, no lightsyes, no lights
Obstructions: 57 ft. trees, 619 ft. from runway, 37 ft. left of centerline, 7:1 slope to clear
APCH SLOPE AT CL 20:1 FM DSPLCD THLD AND CENTERLINE.
69 ft. trees, 1435 ft. from runway, 17:1 slope to clear
+15 FT FENCE 87 FT R AT THR; -6 FT DITCH 65 FT L AT THR.

Airport Ownership and Management from official FAA records

Ownership: Publicly-owned
Owner: MNCPPC
GOVERNOR ODEN BOWIE DR
UPPER MARLBORO, MD 20772
Phone 301-952-3261
MARYLAND NATIONAL CAPITAL PARK & PLANNING CMSN.
Manager: LEE SOMMER
1909 CORPORAL FRANK SCOTT DRIVE
COLLEGE PARK, MD 20740
Phone 301-864-5844

Airport Operational Statistics

Aircraft based on the field: 30
Single engine airplanes: 28
Helicopters: 2
    
Aircraft operations: avg 62/week *
66% local general aviation
29% transient general aviation
4% military
1% air taxi
* for 12-month period ending 06 September 2018

Additional Remarks

NO TKOFS 2200-0700; LNDG ONLY.
TSNT PRKG: FIRST 4 HRS FREE; FEE AFT, WAIVED W/MIN FUEL PURCHASE; OVNGT FEE.
HEL RAMP FEE; WAIVED IF UNDER 3500 LBS OR MIN FUEL PURCHASE.
ACFT HANDLING FEE IF RELOCATION TO/FROM FUEL AREA RQRD BY ARPT PSNL.
BLDG 0.1 NM S OF ARPT 23 FT AGL LGTD.
NO ACFT OVR 12500 LBS MFR GWT; HELS ONLY WITH 24 HR PPR - CALL AMGR 301-864-5844.
NOISE ABATEMENT PROCEDURES IN EFFECT CTC AMGR 301-864-5844.
AER 15 HEAVY SMOKE & FIREFIGHTING TRAINING OPNS INTERMITTENTLY IN PROGRESS.
NO STUDENT TGL OR SOLO OPNS PERMITTED.
DEER AND OTHER WILDLIFE ON & INVOF ARPT.
COMPLIANCE WITH 14CFR SECTION 93.335 IS REQUIRED BEFORE PILOTS MAY OPERATE TO/FROM THIS AIRPORT.
FOR CD CTC POTOMAC APCH AT 866-599-3874.

Instrument Procedures

NOTE: All procedures below are presented as PDF files. If you need a reader for these files, you should download the free Adobe Reader.

NOT FOR NAVIGATION. Please procure official charts for flight.
FAA instrument procedures published for use from 3 January 2019 at 0901Z to 31 January 2019 at 0900Z.

 
IAPs - Instrument Approach Procedures
RNAV (GPS)-A   download (132KB)
RNAV (GPS)-B   download (124KB)
NOTE: Special Take-Off Minimums/Departure Procedures apply   download (140KB)

Other nearby airports with instrument procedures:

W00 - Freeway Airport (7 nm E)
KDCA - Ronald Reagan Washington National Airport (9 nm SW)
KFME - Tipton Airport (10 nm NE)
KADW - Joint Base Andrews (11 nm S)
W32 - Washington Executive Airport/Hyde Field (14 nm S)
KVKX - Potomac Airfield (14 nm S)
KGAI - Montgomery County Airpark (16 nm NW)
KBWI - Baltimore/Washington International Thurgood Marshall Airport (17 nm NE)
KANP - Lee Airport (17 nm E)
W50 - Davis Airport (19 nm NW)
 
Loc | Ops | Rwys | IFR | FBO | Links
Com | Nav | Svcs | Stats | Notes
Area around KCGS (College Park Airport)
 
Road maps at: MapQuest Bing Google
 
Aerial photo
WARNING: Photo may not be current or correct
Aerial photo of KCGS (College Park Airport)
Photo taken 19-Oct-2016
looking north.

Do you have a better or more recent aerial photo of College Park Airport that you would like to share? If so, please send us your photo.

 
Sectional chart

 
Airport distance calculator
Flying to College Park Airport? Find the distance to fly.

From to KCGS

Sunrise and sunset
Times for 23-Jan-2019
 Local
(UTC-5)
 Zulu
(UTC)
Morning civil twilight06:5311:53
Sunrise07:2212:22
Sunset17:1722:17
Evening civil twilight17:4622:46

Current date and time
Zulu (UTC)  23-Jan-2019 07:37:13
Local (UTC-5)  23-Jan-2019 02:37:13
 
METAR
KCGS 230703Z AUTO 18004KT 10SM CLR M01/M12 A3048 RMK AO1 T10131120
KDCA 
9nm SW 
230652Z 18011KT 10SM OVC200 00/M11 A3049 RMK AO2 SLP323 T00001106
KFME 
10nm NE 
230703Z AUTO 16003KT 10SM CLR M02/M07 A3050 RMK AO1
KADW 
10nm S 
230656Z AUTO 18008KT 10SM CLR M02/M11 A3047 RMK AO2 SLP329 T10211109 $
KVKX 
14nm S 
SuperAWOS
230715Z AUTO VRB04KT 10SM M01/M10 A3047
KBWI 
16nm NE 
230654Z 17004KT 10SM BKN190 BKN250 M02/M09 A3047 RMK AO2 SLP320 T10221094
KGAI 
16nm NW 
230656Z AUTO 16006KT 10SM CLR M02/M11 A3044 RMK AO2 SLP343 T10221106 FZRANO
KANP 
17nm E 
SuperAWOS
230715Z AUTO 00000KT 10SM M02/M10 A3046
KDAA 
20nm SW 
230656Z AUTO 16006KT 10SM CLR M02/M13 A3048 RMK AO2 SLP326 T10171127
TAF
KDCA 
9nm SW 
230540Z 2306/2412 17008G16KT P6SM OVC200 FM231400 19010G18KT P6SM BKN025 OVC200 FM231900 18010G18KT P6SM SCT008 OVC025 WS020/20045KT FM232300 18008KT 5SM -DZ BKN008 OVC015 WS020/19050KT FM240400 17005KT 3SM -RA BKN008 OVC015 WS020/19050KT FM241000 17012G20KT 2SM +RA SCT008 OVC015 WS020/20040KT
KADW 
10nm S 
230100Z 2301/2407 18006KT 9999 SCT170 QNH3042INS BECMG 2308/2309 19009KT 9999 BKN025 WS020/23040KT QNH3009INS TEMPO 2315/2321 21012G18KT BECMG 2320/2321 19010G15KT 9999 BKN015 WS020/21040KT QNH3001INS BECMG 2322/2323 19012G18KT 9999 BKN007 WS020/21050KT QNH2990INS BECMG 2404/2405 18012KT 4800 -RA BKN010 510209 QNH2980INS TX09/2401Z TNM03/2303Z
KBWI 
16nm NE 
230540Z 2306/2412 17008KT P6SM OVC200 FM231400 18010G18KT P6SM BKN025 OVC200 FM231900 18010G18KT P6SM SCT008 OVC025 WS020/20045KT FM240000 18008KT 5SM -DZ BKN008 OVC015 WS020/19050KT FM240400 17008KT 3SM -RA BKN008 OVC015 WS020/19050KT FM241000 17010G18KT 2SM +RA BKN008 OVC015 WS020/20050KT
KDAA 
20nm SW 
230200Z 2302/2408 18006KT 9999 SCT170 QNH3042INS BECMG 2308/2309 19009KT 9999 BKN025 WS020/23040KT QNH3009INS BECMG 2320/2321 19009KT 9999 BKN015 WS020/21040KT QNH3001INS BECMG 2322/2323 19009KT 9999 BKN007 WS020/21050KT QNH2991INS BECMG 2402/2403 18012KT 9000 BR BKN005 WS020/20050KT QNH2980INS BECMG 2406/2407 18012KT 8000 -DZ BR BKN010 510209 QNH2980INS TX09/2402Z TNM03/2302Z LAST NO AMDS AFT 2302 NEXT 2310
NOTAMs
Click for the latest NOTAMs
NOTAMs are issued by the DoD/FAA and will open in a separate window not controlled by AirNav.

 

 
 

FBO, Fuel Providers, and Aircraft Ground Support

  
 Business Name 
 
 Contact 
 
 Services / Description 
 
Fuel Prices
 
Comments
  
College Park Airport 301-864-5844
no information available

If you are affiliated with College Park Airport and would like to show here your services, contact info, web link, logo, and more, click here
100LL Jet A
FS --- $4.58 
PS $4.99 --- 
 Updated 14-Jan-2019
 
   8 read write
FS=Full service
PS=Pump service
Update Fuel Prices
 

Getting Around: Taxi, Limo, Rental Cars, Mass Transit

  
 Business Name 
 
 Contact 
 
Services / Description
 
Comments
  
Metrorail [web site]
no information available

If you are affiliated with Metrorail and would like to show here your services, contact info, web link, logo, and more, click here
 
   3 read write
 

Things to do: Attractions on or near the airport

  
 Business Name 
 
 Contact 
 
 Services / Description 
 
Distance
 
Comments
  
College Park Aviation Museum 301-864-6029
no information available

If you are affiliated with College Park Aviation Museum and would like to show here your services, contact info, web link, logo, and more, click here
on airport  
   2 read write
 

Would you like to see your business listed on this page?

 If your business provides an interesting product or service to pilots, flight crews, aircraft, or users of the College Park Airport, you should consider listing it here.  To start the listing process, click on the button below
 
Add a business
 

Other Pages about College Park Airport

www.collegeparkairport.org
www.pgparks.com/...
 
Update a link
 
Copyright © AirNav, LLC. All rights reserved. Privacy Policy  Contact